Location: St. Louis
(38.6270°N, 90.1994°W)
Time: 20:52:01
(UTC-06:00)

Vanguard 1 - Pass Details

Date: 09 December 2021
Orbit: 652 x 3830 km, 34.2° (Epoch: 21 January)

Event Time Altitude Azimuth Distance (km) Brightness Sun altitude
Exits shadow 01:07:11 37° 100° (E) 4,670 13.3 -67.7°
Drops below altitude 10° 01:15:55 10° 96° (E) 6,010 14.2 -66.3°
Sets 01:19:48 0° 96° (E) 6,715 14.6 -65.7°
